星链-37101(STARLINK-37101)

导读

STARLINK-37101(NORAD编号68234)是美国太空探索技术公司(SpaceX)星链(Starlink)计划的卫星,属于星链低轨宽带互联网星座组成部分,运行于近地轨道。 该卫星在2025年12月出现异常,轨道高度骤降约4000米,发生解体并产生数十块空间碎片,随后与地面失去联系。SpaceX后续监测显示,卫星大致保持完整但处于翻滚状态,预计碎片会在数周内再入地球大气层烧毁,初步判定事故源于卫星内部问题,而非碰撞导致。

基本信息
目录编号:
68234
目录名称:
STARLINK-37101
国际标识:
2026-054C
轨道中心:
EARTH
卫星名称:
星链-37101
卫星全名:
星链-37101(STARLINK-37101)
卫星状态:
在轨 (已飞行180 天)
发射日期:
2026-03-17 UTC
国别 :
美国 (US)
星等 :
--
该卫星已列入 空间交会检测服务 Space Conjunction Data Service (SCDS) ,当前飞行风险评估等级: 高风险
轨道信息
数据来源 国际轨道数据
星历时间: 2026-09-13T07:18:25+0800
13小时前
查看轨道信息
半长轴: 6840.821km
偏心率: 0.0001217
轨道倾角: 53.158°
近地点辐角 96.713°
升交点赤经 137.176°
平近点角 263.401°
近地点: 461.851km
远地点: 463.517km
周期: 93.847分钟
每日圈数: 15.344068
详细信息
固有亮度:
5
最大亮度:
2.5
卫星平台:
Starlink V1.0
覆盖范围:
全球
运营商:
太空探索技术公司
运营商所在国:
美国
制造商(研发单位):
太空探索技术公司
制造商所在国:
美国
使用方式:
暂无
卫星简介
Starlink 计划是 SpaceX 推出的全球卫星互联网项目,通过发射低轨道卫星,为全球尤其是偏远地区提供高速、低延迟的互联网服务。自 2019 年起,Starlink 已部署数千颗卫星,旨在缩小全球数字鸿沟,推动互联网普及。该项目还为军事、航空等行业提供通信支持,带来广泛经济效益。
2D轨道图
3D轨道图
轨道高度分析图
轨道倾角分析图
轨道综合分析图
查看轨道综合分析图
交会数据列表
事件ID 空间交会对象 最接近时刻(TCA) 交会距离 交会风险概率(CRP) 交会风险指数(CRI) 操作
CDM_260915-233406-305006-823421
2026-09-15T
23:34:38+0000
1.277 km
极远距离
3.201975E-6 低风险 0.45
CDM_260915-121305-212606-823421
2026-09-15T
12:13:35+0000
2.929 km
极远距离
1.232259E-6 低风险 0.37
CDM_260915-233706-035806-823421
2026-09-15T
23:37:55+0000
1.967 km
极远距离
9.873787E-7 极低风险 0.35
CDM_260915-132805-110506-823421
2026-09-15T
13:28:27+0000
2.693 km
极远距离
5.853828E-7 极低风险 0.3
与全量物体交会距离演化趋势
与全量物体交会风险概率演化趋势